[[{"header":{"parameterUnit":"m.s-1","parameterCategory":1,"la1":30.2992,"la2":30.254,"lo1":-89.0895,"lo2":-89.0443,"dy":0.0025,"dx":0.0025,"nx":19,"ny":19,"refTime":"2026-05-08T03:00:00:Z","depth":0,"parameterNumber":2,"parameterNumberName":"U-component_of_WINDS"},"data":[0,0,0,-7.5628,-7.5632,-7.5761,-7.5761,-7.5971,-7.5973,0,0,0,0,0,0,0,0,0,0,0,-7.5619,-7.5621,-7.5628,-7.5632,-7.5761,-7.5761,-7.597,-7.5973,0,0,0,0,0,0,0,0,0,0,0,-7.5617,-7.562,-7.5623,-7.5633,-7.5761,-7.5761,-7.597,-7.5856,0,0,0,0,0,0,0,0,0,0,-7.5722,-7.5742,-7.562,-7.5624,-7.5633,-7.5761,-7.5761,-7.585,-7.5863,-7.5932,0,-7.6003,0,-7.5992,-7.599,-7.5991,0,0,0,-7.5609,-7.5731,-7.5741,-7.5624,-7.5635,-7.5761,-7.5696,-7.5856,-7.5872,-7.595,-7.6005,-7.6012,-7.5995,-7.5992,-7.5993,-7.6469,-7.6472,0,0,-7.5602,-7.5656,-7.5731,-7.5752,-7.5738,-7.5693,-7.5701,-7.5865,-7.5928,-7.6006,-7.6016,-7.5999,-7.5993,-7.5995,-7.6466,-7.647,0,0,0,-7.5597,-7.5653,-7.5657,-7.5745,-7.5765,-7.5697,-7.5706,-7.592,-7.5917,-7.6018,-7.6001,-7.5995,-7.5998,-7.6463,-7.6468,-7.6681,0,0,0,-7.5591,-7.5649,-7.5655,-7.5689,-7.5763,-7.5845,-7.5759,-7.5906,-7.5923,-7.6,-7.5995,-7.6,-7.6459,-7.6465,-7.6667,-7.6771,0,0,0,-7.56,-7.565,-7.5679,-7.5692,-7.575,-7.5841,-7.5847,-7.5908,-7.5914,-7.5991,-7.6001,-7.6456,-7.6464,-7.6655,-7.675,-7.691,0,0,0,-7.5624,-7.5866,-7.5683,-7.5947,-7.5749,-7.5974,-7.5845,-7.6009,-7.6101,-7.5996,-7.6459,-7.6467,-7.6651,-7.6738,-7.6897,-7.7051,-7.7122,0,0,-7.5959,-7.5908,-7.6059,-7.59,-7.6171,-7.595,-7.6252,-7.6283,-7.624,-7.6395,-7.6406,-7.6672,-7.6749,-7.6907,-7.7505,-7.7561,0,0,0,-7.6184,-7.6292,-7.6353,-7.6444,-7.6477,-7.6511,-7.6492,-7.6504,-7.6633,-7.6332,-7.6773,-7.6817,-7.6908,-7.6978,-7.7026,-7.7099,-7.6504,-7.6503,-7.6502,-7.6731,-7.6666,-7.6911,-7.6862,-7.6953,-7.6932,-7.6998,-7.701,-7.6916,-7.7022,-7.7065,-7.7436,-7.7522,-7.7557,-7.7634,-7.7145,-7.7146,-7.7147,-7.7147,-7.7212,-7.7354,-7.7228,-7.7419,-7.7349,-7.7508,-7.7499,-7.7427,-7.7563,-7.7398,-7.7474,-7.7294,-7.7621,-7.7684,-7.7163,-7.716,-7.7158,-7.7156,-7.7155,-7.7559,-7.7616,-7.763,-7.7756,-7.7861,-7.7803,-7.7941,-7.7872,-7.7808,-7.7884,-7.7921,-7.7917,-7.7901,-7.7908,-7.7909,-7.791,-7.7911,-7.7912,-7.7913,-7.7911,-7.792,-7.8046,-7.8104,-7.8154,-7.8211,-7.8196,-7.8242,-7.8276,-7.8214,-7.8214,-7.8108,-7.7668,-7.7555,-7.7933,-7.7929,-7.7927,-7.7925,-7.7923,-7.8414,-7.8291,-7.8485,-7.8536,-7.8598,-7.8706,-7.8619,-7.8721,-7.875,-7.8819,-7.87,-7.8387,-7.8328,-7.8289,-7.8195,-7.8715,-7.8715,-7.8715,-7.8715,-7.8703,-7.8669,-7.8852,-7.8938,-7.9015,-7.8957,-7.9176,-7.9168,-7.9139,-7.9152,-7.9069,-7.8941,-7.8905,-7.8867,-7.8816,-7.8727,-7.937,-7.9371,-7.9371,-7.9006,-7.8978,-7.9177,-7.9151,-7.9196,-7.9235,-7.9438,-7.954,-7.9482,-7.9396,-7.916,-7.9133,-7.8925,-7.8862,-7.8765,-7.8687,-7.8523,0,0]},{"header":{"parameterUnit":"m.s-1","parameterCategory":1,"la1":30.2992,"la2":30.254,"lo1":-89.0895,"lo2":-89.0443,"dy":0.0025,"dx":0.0025,"nx":19,"ny":19,"refTime":"2026-05-08T03:00:00:Z","depth":0,"parameterNumber":3,"parameterNumberName":"V-component_of_WINDS"},"data":[0,0,0,2.6654,2.6654,2.6662,2.6662,2.6674,2.6674,0,0,0,0,0,0,0,0,0,0,0,2.6654,2.6654,2.6654,2.6654,2.6662,2.6662,2.6674,2.6674,0,0,0,0,0,0,0,0,0,0,0,2.6654,2.6654,2.6654,2.6655,2.6662,2.6662,2.6674,2.6667,0,0,0,0,0,0,0,0,0,0,2.6659,2.6661,2.6654,2.6654,2.6655,2.6662,2.6662,2.6666,2.6667,2.6671,0,2.6677,0,2.6676,2.6675,2.6675,0,0,0,2.6652,2.666,2.6661,2.6654,2.6655,2.6662,2.6658,2.6667,2.6668,2.6672,2.6677,2.6677,2.6676,2.6675,2.6675,2.671,2.6711,0,0,2.6652,2.6656,2.666,2.6662,2.6662,2.6658,2.6658,2.6667,2.6672,2.6677,2.6677,2.6676,2.6675,2.6675,2.671,2.671,0,0,0,2.6652,2.6656,2.6656,2.6661,2.6663,2.6658,2.6659,2.6671,2.6671,2.6677,2.6676,2.6675,2.6675,2.671,2.671,2.6728,0,0,0,2.6652,2.6656,2.6656,2.6658,2.6663,2.6667,2.6662,2.6671,2.6671,2.6676,2.6675,2.6675,2.671,2.671,2.6727,2.6735,0,0,0,2.6653,2.6656,2.6658,2.6659,2.6662,2.6667,2.6667,2.6671,2.6671,2.6675,2.6675,2.6709,2.671,2.6726,2.6733,2.6746,0,0,0,2.6654,2.6672,2.6658,2.6678,2.6662,2.6679,2.6667,2.6679,2.6685,2.6675,2.671,2.671,2.6726,2.6732,2.6745,2.6756,2.6762,0,0,2.6679,2.6675,2.6686,2.6675,2.6695,2.6678,2.67,2.67,2.6696,2.6706,2.6706,2.6727,2.6733,2.6745,2.6794,2.6798,0,0,0,2.6695,2.6703,2.6708,2.6715,2.6718,2.672,2.6717,2.6718,2.6727,2.6702,2.6736,2.6739,2.6746,2.6751,2.6755,2.6761,2.6713,2.6713,2.6713,2.6733,2.673,2.6748,2.6747,2.6754,2.6752,2.6757,2.6758,2.6749,2.6758,2.676,2.679,2.6796,2.6799,2.6805,2.6767,2.6767,2.6767,2.6767,2.6768,2.6778,2.6772,2.6787,2.6783,2.6795,2.6796,2.679,2.6801,2.6787,2.6793,2.6778,2.6804,2.6809,2.6768,2.6768,2.6768,2.6768,2.6768,2.6791,2.6795,2.6798,2.681,2.682,2.6817,2.6829,2.6825,2.682,2.6826,2.6828,2.6828,2.6826,2.6828,2.6828,2.6828,2.6829,2.6829,2.6829,2.6813,2.6816,2.6827,2.6834,2.684,2.6846,2.6848,2.6852,2.6856,2.6852,2.6852,2.6843,2.6809,2.6799,2.683,2.683,2.683,2.683,2.683,2.6846,2.6839,2.6856,2.6862,2.6871,2.6882,2.6878,2.6889,2.6892,2.6898,2.689,2.6865,2.686,2.6857,2.6849,2.6891,2.6891,2.6891,2.6891,2.6864,2.6863,2.6881,2.6891,2.69,2.69,2.6919,2.6922,2.6922,2.6924,2.6918,2.6908,2.6905,2.6902,2.6898,2.689,2.6941,2.6941,2.6942,2.6884,2.6884,2.6901,2.6905,2.6913,2.692,2.6938,2.6949,2.6948,2.6943,2.6926,2.6923,2.6907,2.6902,2.6893,2.6887,2.6873,0,0]}]]